Lubbock, TX

11:42 AM CST on December 09, 2019 (GMT -0600)
Lubbock International

Weather History for KLBB - May, 2019

Change the Weather History Date:

Saturday, May 11, 2019

  Actual Average Record
Temperature  
Mean Temperature 57 °F 68 °F  
Max Temperature 68 °F 83 °F 102 °F (2018)
Min Temperature 45 °F 54 °F 37 °F (1930)
Degree Days  
Heating Degree Days 8 2  
Month to date heating degree days 48 24  
Since 1 July heating degree days 3445 3361  
Cooling Degree Days 0 5  
Month to date cooling degree days 28 44  
Year to date cooling degree days 91 100  
Growing Degree Days 6 (Base 50)    
Moisture  
Dew Point 46 °F    
Average Humidity 71    
Maximum Humidity 93    
Minimum Humidity 48    
Precipitation  
Precipitation 0.02 in 0.07 in 3.25 in (1970)
Month to date precipitation 0.69 0.63  
Year to date precipitation 3.61 4.54  
Snow  
Snow 0.00 in 0.00 in T in (1926)
Month to date snowfall T 0.0  
Since 1 July snowfall 10.1 8.2  
Snow Depth 0.00 in    
Sea Level Pressure  
Sea Level Pressure 29.94 in    
Wind  
Wind Speed 6 mph (NNW)    
Max Wind Speed 14 mph    
Max Gust Speed 19 mph    
Visibility 9 miles    
Events      
T = Trace of Precipitation, MM = Missing Value Source: NWS Daily Summary

Daily Weather History Graph

Daily Weather History Graph

Search for Another Location

Airport or City:

Astronomy

May. 11, 2019 Rise Set
Actual Time 6:49 AM CDT 8:38 PM CDT
Civil Twilight 6:22 AM CDT 9:05 PM CDT
Nautical Twilight 5:49 AM CDT 9:38 PM CDT
Astronomical Twilight 5:14 AM CDT 10:13 PM CDT
Moon 1:01 PM CDT (5/11) 2:19 AM CDT (5/11)
Length of Visible Light 14h 42m
Length of Day
13h 48m
Waxing Crescent, 46% of the Moon is Illuminated
May 11
Waxing Crescent
May 11
First Quarter
May 18
Full
May 26
Last Quarter
Jun 3
New

Hourly Weather History & Observations

Time (CDT) Temp. Windchill Dew Point Humidity Pressure Visibility Wind Dir Wind Speed Gust Speed Precip Events Conditions
12:53 AM 46.9 °F - 44.1 °F 90% 30.04 in 10.0 mi ENE 3.5 mph - N/A   Overcast
1:13 AM 46.9 °F - 44.1 °F 90% 30.06 in 3.0 mi NNE 6.9 mph - 0.00 in   Light Drizzle
1:53 AM 46.0 °F 43.9 °F 45.0 °F 96% 30.03 in 3.0 mi NE 4.6 mph - 0.00 in   Light Drizzle
2:53 AM 46.0 °F - 45.0 °F 96% 30.02 in 3.0 mi Calm Calm - 0.01 in   Light Drizzle
3:53 AM 46.0 °F 43.9 °F 45.0 °F 96% 29.99 in 3.0 mi NW 4.6 mph - 0.01 in   Light Drizzle
4:25 AM 46.0 °F 43.9 °F 45.0 °F 96% 30.00 in 10.0 mi North 4.6 mph - 0.00 in   Overcast
4:53 AM 46.0 °F 41.4 °F 44.1 °F 93% 29.96 in 10.0 mi North 9.2 mph - 0.00 in   Overcast
5:53 AM 46.0 °F 41.9 °F 43.0 °F 89% 29.96 in 10.0 mi NW 8.1 mph - N/A   Overcast
6:53 AM 46.0 °F 42.5 °F 43.0 °F 89% 29.97 in 10.0 mi NNW 6.9 mph - N/A   Overcast
7:53 AM 46.9 °F - 44.1 °F 90% 29.97 in 10.0 mi NW 6.9 mph - N/A   Overcast
8:11 AM 46.9 °F - 44.1 °F 90% 30.02 in 10.0 mi WNW 6.9 mph - N/A   Overcast
8:22 AM 48.0 °F - 44.1 °F 86% 30.02 in 10.0 mi WNW 5.8 mph - N/A   Overcast
8:53 AM 48.0 °F - 43.0 °F 83% 29.98 in 10.0 mi Calm Calm - N/A   Overcast
9:53 AM 50.0 °F - 45.0 °F 83% 29.97 in 10.0 mi WNW 3.5 mph - N/A   Overcast
10:22 AM 51.1 °F - 46.0 °F 83% 30.01 in 10.0 mi Variable 5.8 mph - N/A   Overcast
10:53 AM 53.1 °F - 46.0 °F 77% 29.96 in 10.0 mi WNW 8.1 mph - N/A   Overcast
11:53 AM 55.0 °F - 45.0 °F 69% 29.95 in 10.0 mi NW 9.2 mph - N/A   Overcast
12:53 PM 57.9 °F - 45.0 °F 62% 29.92 in 10.0 mi NNW 8.1 mph - N/A   Overcast
1:50 PM 59.0 °F - 44.6 °F 59% 29.97 in 10.0 mi NW 8.1 mph - N/A   Overcast
1:53 PM 59.0 °F - 45.0 °F 60% 29.91 in 10.0 mi NW 8.1 mph - N/A   Overcast
2:53 PM 63.0 °F - 46.9 °F 56% 29.87 in 10.0 mi Variable 3.5 mph - N/A   Mostly Cloudy
3:53 PM 66.0 °F - 46.0 °F 48% 29.85 in 10.0 mi West 10.4 mph - N/A   Overcast
4:53 PM 66.9 °F - 46.9 °F 49% 29.82 in 10.0 mi NW 6.9 mph - N/A   Mostly Cloudy
5:53 PM 66.0 °F - 46.0 °F 48% 29.81 in 10.0 mi NNW 9.2 mph - N/A   Mostly Cloudy
6:53 PM 66.0 °F - 46.9 °F 50% 29.81 in 10.0 mi NW 10.4 mph - N/A   Mostly Cloudy
7:53 PM 64.0 °F - 46.9 °F 54% 29.81 in 10.0 mi North 6.9 mph - N/A   Mostly Cloudy
8:53 PM 60.1 °F - 48.9 °F 67% 29.84 in 10.0 mi NNE 4.6 mph - N/A   Scattered Clouds
9:53 PM 59.0 °F - 48.9 °F 69% 29.86 in 10.0 mi East 3.5 mph - N/A   Partly Cloudy
10:53 PM 57.0 °F - 50.0 °F 77% 29.87 in 10.0 mi ESE 5.8 mph - N/A   Partly Cloudy
11:53 PM 55.0 °F - 51.1 °F 86% 29.88 in 10.0 mi SE 4.6 mph - N/A   Partly Cloudy